This is the latest recevied weather packets stored in our database for station/object OK1PHM-12. If no packets are shown the sender has not sent any weather packets the latest 10 day(s).
| Time | Temp. | Humidity | Pressure | Rain* | Wind** | Luminosity | Snow |
|---|---|---|---|---|---|---|---|
| 1777720049 | 24.44° C | 33% | 1024.5 hPa | - | - | - | - |
| 1777719149 | 23.89° C | 32% | 1024.8 hPa | - | - | - | - |
| 1777718248 | 23.89° C | 33% | 1024.9 hPa | - | - | - | - |
| 1777717347 | 22.78° C | 35% | 1025.1 hPa | - | - | - | - |
| 1777716446 | 22.78° C | 36% | 1025.3 hPa | - | - | - | - |
| 1777715545 | 22.22° C | 36% | 1025.5 hPa | - | - | - | - |
| 1777714644 | 22.78° C | 35% | 1025.6 hPa | - | - | - | - |
| 1777713743 | 21.67° C | 36% | 1025.8 hPa | - | - | - | - |
| 1777712843 | 22.22° C | 37% | 1025.9 hPa | - | - | - | - |
| 1777711942 | 21.11° C | 37% | 1026.1 hPa | - | - | - | - |
| 1777711041 | 20.56° C | 42% | 1026.3 hPa | - | - | - | - |
| 1777710140 | 20.56° C | 44% | 1026.5 hPa | - | - | - | - |
| 1777709239 | 20° C | 47% | 1026.5 hPa | - | - | - | - |
| 1777708339 | 20° C | 50% | 1026.8 hPa | - | - | - | - |
| 1777707438 | 19.44° C | 50% | 1026.9 hPa | - | - | - | - |
| 1777706537 | 18.89° C | 51% | 1027 hPa | - | - | - | - |
| 1777705636 | 18.89° C | 53% | 1027 hPa | - | - | - | - |
| 1777704735 | 17.22° C | 55% | 1026.8 hPa | - | - | - | - |
| 1777703834 | 16.67° C | 57% | 1027 hPa | - | - | - | - |
| 1777702934 | 15.56° C | 59% | 1027 hPa | - | - | - | - |
| 1777702033 | 15° C | 59% | 1026.9 hPa | - | - | - | - |
| 1777701132 | 14.44° C | 60% | 1026.9 hPa | - | - | - | - |
| 1777700231 | 14.44° C | 60% | 1027 hPa | - | - | - | - |
| 1777699330 | 11.67° C | 65% | 1026.9 hPa | - | - | - | - |
| 1777698429 | 11.67° C | 65% | 1026.8 hPa | - | - | - | - |
* Rain since midnight (hover to see other rain measurements)
** Current wind speed in m/s (hover to see current wind gust speed)